www.pogodaiklimat.ru

Погода и климат >> Архив погоды >> Россия >> Чукотка >> Константиновская


ПОГОДА в Константиновской

  • Прогноз погоды в Константиновской
  • Монитор погоды в Константиновской
  • Климат города

АРХИВ ПОГОДЫ в Константиновской

Время (UTC), дата Ветер
(напр.,м/с)
 
Видим.   Явления Облачность Т
(С)
Тd
(С)
f
(%)
Тe
(С)
Тes
(С)
Комфортность P
(гПа)
Po
(гПа)
Тmin
(С)
Tmax
(С)
R
(мм)
R24
(мм)
S
(см)
15 17.06 СЗ 1
{4}
50 км 9/0
[Ac trans Ci]
+8.5 +7.8 95 +8 +8 1007.7 1006.7
18 17.06 штиль 0
{3}
50 км 10/3 600 м
[Sc Ac trans Cs]
+10.5 +8.9 90 +10 +10 1007.3 1006.3
21 17.06 штиль 0
{3}
50 км 10/5 600 м
[Sc Ac lent Cs]
+11.7 +9.2 85 +11 +13 1007.2 1006.2 +8.5
00 18.06 штиль 0
{4}
4000 м дождь 10/5 300 м
[Frnb Ac As]
+12.9 +11.8 93 +12 +15 1007.3 1006.3
03 18.06 ЮВ 1
{4}
50 км в посл. час ливневой дождь 10/10 600 м
[Cb cap]
+14.1 +11.9 87 +14 +14 1006.5 1005.5
06 18.06 В 1
{4}
50 км {ливн. осадки, дождь} 8/6 600 м
[Cb cap Ac cuf]
+15.5 +11.8 79 +16 +18 1006.5 1005.5
09 18.06 штиль 0
{3}
50 км 8/3 600 м
[Cb cap Ac cuf Ci ing]
+13.1 +12.0 93 +13 +13 1006.9 1005.9 +16.2 1
12 18.06 С 1
{2}
50 км 8/0
[Ac trans Cc]
+11.9 +11.3 96 +12 +12 1007.6 1006.6
15 18.06 СЗ 2
{3}
50 км 8/0
[Ac lent Cc]
+6.1 +5.6 97 +3 +4 1007.8 1006.8
18 18.06 СЗ 3
{8}
50 км 9/3 600 м
[Cb cap Ac trans Ci fib]
+8.9 +7.3 90 +6 +7 1009.6 1008.6
21 18.06 СЗ 3
{8}
50 км 10/10 300 м
[St]
+6.7 +5.3 91 +4 +4 1010.8 1009.8 +5.9
00 19.06 СЗ 3
{7}
50 км 10/10 300 м
[Sc]
+6.9 +4.6 85 +4 +4 1011.1 1010.1
03 19.06 СЗ 4
{7}
50 км 10/10 300 м
[Sc]
+8.1 +4.6 79 +5 +5 1010.4 1009.4
06 19.06 СЗ 3
{9}
10 км слабый дождь 10/10 300 м
[Sc]
+6.3 +4.9 91 +3 +3 1009.6 1008.6
09 19.06 СЗ 1
{6}
10 км слабый дождь 10/10 300 м
[Sc]
+5.9 +4.5 91 +5 +5 1008.7 1007.7 +9.0 0.3
12 19.06 СЗ 1
{4}
50 км {дождь} 10/10 300 м
[Sc]
+5.3 +4.1 92 +4 +4 1007.3 1006.3
15 19.06 С 1
{2}
50 км 10/10 300 м
[St]
+5.3 +4.4 94 +4 +4 1005.7 1004.7
18 19.06 С 1
{3}
50 км 10/10 300 м
[St]
+5.4 +4.2 92 +4 +4 1004.4 1003.4
21 19.06 СВ 1
{3}
50 км 10/10 600 м
[Sc]
+7.8 +4.6 80 +7 +7 1002.9 1001.9 +5.1 0.0
00 20.06 С 2
{4}
50 км 9/9 600 м
[Sc]
+11.0 +6.1 72 +10 +11 1001.5 1000.5
03 20.06 С 2
{7}
50 км 10/10 600 м
[Sc]
+10.3 +5.9 74 +9 +9 1001.3 1000.3
06 20.06 СЗ 2
{7}
50 км 10/6 600 м
[Sc Ac trans Cs]
+10.9 +5.9 71 +10 +11 1000.8 999.8
09 20.06 СЗ 2
{7}
50 км 9/3 600 м
[Cu hum Ac trans]
+10.5 +5.5 71 +9 +10 1001.3 1000.3 +12.1
12 20.06 СЗ 2
{6}
50 км 3/0
[Ac trans Ci fib]
+4.8 +2.8 87 +2 +2 1001.7 1000.7
15 20.06 СЗ 1
{4}
50 км 3/0
[Ci fib]
+2.5 +2.2 98 +1 +1 1002.2 1001.2
18 20.06 СЗ 1
{4}
50 км 8/6 600 м
[Sc Ac trans Ci fib]
+8.4 +6.4 87 +8 +8 1003.6 1002.6
21 20.06 С 2
{6}
50 км 9/8 600 м
[Sc Ac trans Ci fib]
+11.5 +4.1 60 +11 +12 1004.8 1003.8 +1.9
00 21.06 СЗ 3
{8}
50 км 9/9 600 м
[Sc diur, vesp]
+12.3 +6.4 67 +11 +12 1006.1 1005.1
03 21.06 С 3
{8}
50 км 10/6 600 м
[Sc Ac und]
+10.1 +5.3 72 +8 +9 1006.9 1005.9
06 21.06 СЗ 3
{8}
50 км 9/6 600 м
[Sc Ac trans]
+8.8 +4.3 73 +6 +7 1007.7 1006.7
09 21.06 С 3
{8}
50 км 8/5 600 м
[Sc Ac trans Ci fib]
+7.1 +2.9 75 +4 +5 1008.3 1007.3 +14.3
12 21.06 СЗ 2
{7}
50 км 9/3 600 м
[Sc Ac trans Cc]
+4.9 +1.9 81 +2 +2 1008.5 1007.5
15 21.06 СЗ 2
{5}
50 км 10/10 1000 м
[Sc]
+5.3 +2.6 83 +3 +3 1008.1 1007.1
18 21.06 С 1
{4}
50 км 10/8 1000 м
[Sc Ac und]
+5.7 +2.5 80 +5 +5 1007.9 1006.9
21 21.06 СВ 1
{4}
50 км 10/10 300 м
[Sc]
+6.1 +3.2 82 +5 +5 1007.9 1006.9 +4.5
00 22.06 СЗ 1
{4}
50 км слабый дождь 10/10 600 м
[Sc]
+7.2 +4.1 81 +6 +6 1007.7 1006.7
03 22.06 С 1
{4}
4000 м дождь 10/8 300 м
[Sc As op]
+8.1 +5.6 84 +7 +8 1007.2 1006.2
06 22.06 штиль 0
{3}
4000 м дождь 10/6 300 м
[Frnb As op]
+7.9 +5.9 87 +7 +8 1006.9 1005.9
09 22.06 Ю 1
{2}
50 км {дождь} 10/6 300 м
[Sc Ac trans Cs]
+8.3 +6.4 88 +7 +8 1007.2 1006.2 +8.5 2
12 22.06 Ю 1
{2}
50 км {дождь} 8/3 300 м
[Sc Cc]
+7.4 +6.2 92 +6 +6 1007.5 1006.5
15 22.06 штиль 0
{3}
50 км 10/10 300 м
[St]
+7.7 +7.0 95 +7 +7 1007.4 1006.4
18 22.06 ЮВ 1
{3}
50 км 10/10 300 м
[St]
+8.1 +7.4 95 +7 +7 1007.8 1006.8
21 22.06 ЮВ 1
{3}
50 км 8/8 300 м
[St]
+10.4 +8.0 85 +10 +11 1008.0 1007.0 +7.1
00 23.06 ЮВ 2
{4}
50 км 3/0
[Ac trans Ci fib]
+16.9 +6.8 51 +17 +27 1006.8 1005.8
03 23.06 ЮВ 2
{6}
50 км 1/0
[Ci fib]
+21.3 +5.5 36 +22 +32 комфорт 1005.1 1004.1
06 23.06 Ю 3
{7}
50 км 4/0
[Ci fib]
+23.2 +3.8 28 +23 +27 комфорт 1002.3 1001.3
09 23.06 Ю 3
{8}
50 км 9/0
[Ac trans Cc]
+21.4 +6.7 39 +22 +23 комфорт 1001.2 1000.2 +23.8
12 23.06 Ю 2
{7}
50 км 9/0
[Ac trans Cc]
+16.1 +7.3 56 +16 +16 1000.3 999.3
15 23.06 Ю 3
{6}
50 км 10/0
[Ac trans Cs]
+14.9 +8.1 64 +14 +14 997.8 996.8
18 23.06 Ю 3
{6}
50 км 10/4 1000 м
[Sc Ac trans Cs]
+15.4 +8.5 63 +15 +15 995.9 994.9
21 23.06 Ю 1
{6}
50 км 10/5 600 м
[Cb cap Ac cuf Cs]
+18.1 +10.3 60 +19 +21 995.8 994.8 +14.6
00 24.06 З 3
{6}
50 км 9/3 1000 м
[Sc diur, vesp Ac cuf Cc]
+22.4 +8.9 42 +24 +27 комфорт 995.4 994.4
03 24.06 З 1
{8}
10 км слабый дождь 10/0
[Ac As]
+19.4 +13.0 66 +22 +25 комфорт 995.9 994.9
06 24.06 СЗ 3
{8}
2000 м дождь 10/8 300 м
[Frnb As op]
+9.2 +8.4 95 +7 +7 997.6 996.6
09 24.06 СЗ 3
{9}
2000 м дождь 10/10 300 м
[Frnb Ns]
+5.9 +5.4 97 +2 +2 1000.4 999.4 +23.1 4
12 24.06 СЗ 5-10
{12}
4000 м дождь 10/10 300 м
[Frnb Ns]
+4.1 +3.6 97 -1 -1 1003.6 1002.6

 

Местоположение метеостанции Константиновская (Чукотка, Россия): широта 68.15 долгота 161.10 высота над уровнем моря 8 м.

В архиве по умолчанию представлена погода в Константиновской за последнюю неделю. Архивные данные за месяц целиком и за предыдущие месяцы, начиная с января 2011 года, Вы можете получить, выбрав интересующий диапазон дат из раскрывающегося списка и нажав кнопку "Ввод!".

Внимание! Время в таблицах - всемирное. Для получения местного времени необходимо прибавить поправку, которая в Константиновской равна 12 ч.

Смотрите также архив погоды в соседних городах и на ближайших метеорологических станциях:

Погода в Анюйске (Чукотка, Россия) (28 км)
Погода в Черском (Якутия, Россия) (65 км)
Погода в Колымской (Якутия, Россия) (120 км)
Погода на Островном (Чукотка, Россия) (124 км)
Погода в Бухте Амбарчик (Чукотка, Россия) (170 км)
Погода в Билибино (Чукотка, Россия) (220 км)
Погода в Баимке (Чукотка, Россия) (224 км)
Погода в Раучуе (Чукотка, Россия) (264 км)
Погода в Андрюшкино (Якутия, Россия) (290 км)
Погода в Илирнее (Чукотка, Россия) (304 км)

Пояснения к столбцам:

Ветер - указаны скорость ветра в м/с - средняя за 10 мин, порывы в срок и между сроками (в фигурных скобках) и направление, откуда дует ветер: С - северный, СВ - северо-восточный, В - восточный, ЮВ - юго-восточный, Ю - южный, ЮЗ - юго-западный, З - западный, СЗ - северо-западный.
Видимость - горизонтальная дальность видимости в метрах или километрах. При видимости от 1 до 10 км при отсутствии осадков обычно наблюдается дымка, при ухудшении видимости до 1 км и менее - туман. В сухую погоду видимость может ухудшаться дымом, пылью или мглою.
Явления - указаны атмосферные явления, наблюдавшиеся в срок или в последний час перед сроком; фигурными скобками обозначены явления, наблюдавшиеся между сроками (за 1-3 часа до срока); квадратными скобками обозначены град или гололедные отложения с указанием их диаметра в мм.
Облачность - указаны через наклонную черту общая и нижняя облачность в баллах и высота нижней границы облаков в метрах; квадратными скобками обозначены формы облаков: Ci - перистые, Cs - перисто-слоистые, Cc - перисто-кучевые, Ac - высококучевые, As - высокослоистые, Sc - слоисто-кучевые, Ns - слоисто-дождевые, Cu - кучевые, Cb - кучево-дождевые. Подробнее классификацию облаков см. в Атласе облаков (PDF).
T - Температура воздуха - температура, измеренная на высоте 2 м над землей.
Td - Температура точки росы - температура, при понижении до которой содержащийся в воздухе водяной пар достигнет насыщения.
f - Относительная влажность воздуха - влажноcть воздуха, измеренная на высоте 2 м над землей.
Te - Эффективная температура - температура, которую ощущает одетый по сезону человек в тени. Характеристика душности погоды. При расчете учитывается влияние влажности воздуха и скорости ветра на теплоощущения человека.
Tes - Эффективная температура на солнце - температура, которую ощущает человек, с поправкой на солнечный нагрев. Характеристика знойности погоды. Зависит от высоты солнца над горизонтом, облачности и скорости ветра. Ночью, в пасмурную погоду, а также при ветре 12 м/с и более поправка равна нулю.
P - Атмосферное давление - приведенное к уровню моря атмосферное давление.
Po - Атмосферное давление - измеренное на уровне метеостанции атмосферное давление.
Tmin - Минимальная температура - минимум температуры воздуха на высоте 2 м над землей.
Tmax - Максимальная температура - максимум температуры воздуха на высоте 2 м над землей.
R - Количество осадков - Количество выпавших осадков за период времени, мм. При наведении курсора мыши на число - период времени, за который выпало указанное количество осадков.
R24 - Количество осадков - Количество выпавших осадков за 24 часа, мм.
S - Снежный покров - Высота снежного покрова, см. При наведении курсора мыши на число - состояние снежного покрова и степень покрытия местности в баллах.